Flag for Kuwait Weather past 2 weeks in Kuwait City, Kuwait

64 °F


Feels Like: 64 °F
Forecast: 64 / 74 °F
Wind: No wind

Location: Kuwait International Airport

Current Time: Nov 27, 2015 at 10:19:41 PM

Latest Report: Nov 27, 2015 at 10:00 PM

Visibility: 10 mi

Pressure: 30.07 "Hg

Humidity: 78%

Dew point: 57 °F

Location of Kuwait CityLocation

Historic Weather in Kuwait City — Graph


Kuwait City temperature yesterday

Maximum temperature yesterday: 79 °F (at 2:00 PM)
Minimum temperature yesterday: 52 °F (at 5:00 AM)
Average temperature yesterday: 66 °F

Past Weeks' High & Low Weather Summary

High82 °F (Nov 17, 2:00 PM)100% (Nov 27, 6:00 AM)30.27 "Hg (Nov 27, 6:00 AM)
Low50 °F (Nov 16, 3:30 AM)18% (Nov 25, 2:00 PM)29.83 "Hg (Nov 18, 4:00 AM)
Average65 °F56%30.08 "Hg
* Reported Nov 12 9:00 PM — Nov 27 9:00 PM, Kuwait City, Weather by CustomWeather, © 2015

Note: Actual official high and low records may vary slightly from our data, if they occured in-between our weather recording intervals... More about our weather records


Kuwait City weather history for previous 24 hours

Time TempWeatherWind HumidityBarometerVisibility
9:00 PM
Fri, Nov 27
66 °FClear.3 mph73%30.07 "Hg10 mi
8:30 PM66 °FClear.3 mph73%30.07 "Hg10 mi
8:00 PM66 °FClear.No wind73%30.07 "Hg10 mi
7:30 PM68 °FClear.No wind64%30.09 "Hg10 mi
7:00 PM70 °FClear.3 mph64%30.07 "Hg10 mi
6:00 PM72 °FClear.5 mph61%30.07 "Hg10 mi
5:30 PM72 °FClear.5 mph61%30.07 "Hg10 mi
5:00 PM73 °FClear.5 mph57%30.07 "Hg10 mi
4:00 PM77 °FSunny.3 mph54%30.04 "Hg10 mi
3:30 PM77 °FSunny.No wind54%30.07 "Hg10 mi
3:00 PM79 °FSunny.No wind51%30.07 "Hg10 mi
2:00 PM79 °FClear.No wind48%30.07 "Hg5 mi
1:30 PM79 °FClear.5 mph48%30.09 "Hg5 mi
1:00 PM79 °FPartly sunny.3 mph51%30.09 "Hg4 mi
12:30 PM79 °FPartly sunny.3 mph51%30.09 "Hg4 mi
12:00 PM77 °FPartly sunny.3 mph54%30.09 "Hg4 mi
11:30 AM77 °FClear.3 mph57%30.12 "Hg4 mi
11:00 AM73 °FClear.3 mph65%30.12 "Hg4 mi
10:30 AM73 °FClear.3 mph69%30.15 "Hg4 mi
10:00 AM70 °FFog.3 mph83%30.15 "Hg2 mi
9:00 AM63 °FMild.3 mph100%30.18 "Hg1 mi
8:30 AM61 °FDense fog.3 mph100%30.18 "Hg0 mi
8:00 AM61 °FDense fog.5 mph100%30.15 "Hg0 mi
7:00 AM59 °FDense fog.No wind100%30.15 "Hg0 mi
6:30 AM59 °FDense fog.No wind100%30.15 "Hg0 mi
6:00 AM57 °FLight fog.No wind100%30.12 "Hg1 mi
5:30 AM57 °FClear.No wind94%30.12 "Hg4 mi
5:00 AM57 °FClear.No wind94%30.12 "Hg4 mi
4:30 AM59 °FClear.No wind94%30.12 "Hg4 mi
4:00 AM59 °FClear.No wind88%30.12 "Hg4 mi
3:30 AM59 °FClear.No wind94%30.12 "Hg4 mi
3:00 AM59 °FClear.No wind88%30.12 "Hg4 mi
2:30 AM59 °FClear.No wind82%30.12 "Hg4 mi
2:00 AM59 °FClear.No wind82%30.12 "Hg4 mi
1:00 AM59 °FClear.No wind82%30.15 "Hg4 mi
12:30 AM61 °FClear.No wind83%30.12 "Hg4 mi
12:00 AM63 °FClear.No wind83%30.12 "Hg4 mi
11:30 PM
Thu, Nov 26
63 °FClear.No wind77%30.15 "Hg4 mi
11:00 PM63 °FClear.No wind73%30.15 "Hg10 mi
10:30 PM63 °FClear.No wind73%30.15 "Hg10 mi
10:00 PM63 °FClear.No wind73%30.15 "Hg10 mi
Weather by CustomWeather, © 2015

See weather overviewHow to use our weather pages